Location: Doschendorf
(50.0069°N, 11.0602°E)
Time: 03:58:57
(UTC+00:00)

Cosmos 2219 - Pass Details

Date: 17 November 2019
Orbit: 835 x 858 km, 71.1° (Epoch: 07 December)

Event Time Altitude Azimuth Distance (km) Brightness Sun altitude
Rises 16:06:49 0° 329° (NNW) 3,397 6.5 -6.2°
Reaches altitude 10° 16:09:16 10° 328° (NNW) 2,458 5.8 -6.6°
Maximum altitude 16:14:53 76° 245° (WSW) 867 3.5 -7.4°
Drops below altitude 10° 16:20:29 10° 160° (SSE) 2,444 5.6 -8.3°
Sets 16:22:55 0° 159° (SSE) 3,376 6.3 -8.6°
